National Weather Service United States Department of Commerce

Observations from across/near northern Michigan

Marine Observations

Michigan Hourly Observations

 

Yesterday's high, low and precipitation reports from across northern Michigan

Northern Michigan Temperatures and Precipitation

 

Observation Text Products


000
SXUS83 KAPX 280738
OMRAPX

Marine Observations
National Weather Service Gaylord MI
238 AM EST Sat Jan 28 2023

WIND DATA (KTS) WAVES WATER
SITE DATE/TIME DIR SPEED GUST (FT) TEMP(F) SITE NAME
-------------------------------------------------------------

Lake Superior/St Marys River

GRMM4 280640Z 310 28 36 Grand Marais
WFPM4 280640Z 310 10 24 Whitefish Point
PTIM4 280700Z 260 15 27 Point Iroquois
CYAM 280700Z 270 21 29 SOO (Canada)
KANJ 280731Z 280 19 30 Sault Ste Marie
SWPM4 280700Z 280 23 30 33.44 S.W. Pier
LTRM4 280700Z 270 13 22 Little Rapids
RCKM4 280700Z 260 9 15 Rock Cut
WNEM4 280700Z 260 12 19 West Nebish Island

Lake Huron

DTLM4 280700Z 280 14 21 34.51 DeTour Village
KDRM 280715Z 270 7 16 Drummond Island
KMCD 280715Z 280 18 29 Mackinac Island
MACM4 280700Z 280 19 25 32.18 Mackinac City
KSLH 280715Z 270 17 25 Cheboygan Airport
CYGM4 280650Z 250 5 21 Cheboygan Marina
SRLM4 280700Z 270 34 31.46 Spectacle Reef Light
KPZQ 280715Z 280 9 15 Rogers City
PRIM4 280650Z 270 21 37 Presque Isle Light
KAPN 280654Z 290 7 Alpena Guard Base
APNM4 280720Z 300 13 15 Alpena Harbor Light
TBIM4 280700Z 290 8 13 Thunder Bay Island
SPTM4 280650Z 290 4 20 Sturgeon Point Light
KOSC 280715Z 280 9 15 Oscoda
TAWM4 280640Z 280 12 20 Tawas Point
GSLM4 280640Z 260 19 24 Gravelly Shoals

Lake Michigan

KISQ 280715Z 280 5 Manistique
PNLM4 280700Z 300 10 19 Port Inland
NABM4 280640Z 290 8 17 Naubinway
KSJX 280715Z 280 11 18 St James
KPLN 280654Z 280 15 24 Pellston
KMGN 280715Z 300 14 20 Harbor Springs
KCVX 280715Z 290 19 25 Charlevoix
GTLM4 280640Z 290 25 31 Grand Traverse Light
KTVC 280653Z 310 9 Traverse City
KFKS 280715Z 290 12 Frankfort
MEEM4 280640Z 280 14 18 Manistee Harbor
LDTM4 280700Z 270 12 18 Ludington
KLDM 280715Z 270 10 16 Ludington Airport


000
ASUS43 KDTX 280710
RWRMI
MICHIGAN HOURLY REGIONAL WEATHER ROUNDUP
NATIONAL WEATHER SERVICE DETROIT/PONTIAC MI
200 AM EST SAT JAN 28 2023

NOTE: "FAIR" INDICATES FEW OR NO CLOUDS BELOW 12,000 FEET WITH NO
SIGNIFICANT WEATHER AND/OR OBSTRUCTION TO VISIBILITY.

MIZ047>049-052>055-059>063-066>070-074>076-081>083-280800-
SOUTHEAST LOWER MICHIGAN

CITY SKY/WX TMP DP RH WIND PRES REMARKS
ADRIAN MOCLDY 31 23 72 W9 29.97R WCI 23
ALMA CLOUDY 31 18 56 W17G28 29.90R WCI 20
ANN ARBOR CLOUDY 32 21 64 W21G33 29.93R WCI 20
BAD AXE CLOUDY 30 25 80 NW14G23 29.81R WCI 20
DETROIT CITY MOCLDY 36 23 59 W16G31 29.91R WCI 26
DETROIT CLOUDY 34 24 67 W17G28 29.93R WCI 23
FLINT CLOUDY 32 24 72 W15G26 29.89R WCI 22
GROSSE ILE MOCLDY 34 24 65 W18G30 29.93R WCI 23
HILLSDALE PTCLDY 28 22 79 W14G21 29.95R WCI 17
HOWELL CLOUDY 32 26 78 W17G26 29.91R WCI 20

CITY SKY/WX TMP DP RH WIND PRES REMARKS
JACKSON CLOUDY 30 22 72 W12G32 29.95R WCI 20
LAMBERTVILLE CLEAR 32 27 79 W14G20 29.98R WCI 22
LANSING CLOUDY 31 21 66 W23G32 29.94R WCI 18
LAPEER CLOUDY 33 25 72 W15G26 29.86R WCI 23
MASON CLOUDY 30 21 68 W10G21 29.94R WCI 21
MONROE MOCLDY 34 24 68 W21G26 29.95R WCI 22
MT. CLEMENS CLOUDY 35 23 63 W17G29 29.87R WCI 24
PORT HOPE N/A 32 23 69 W17G29 29.79R WCI 21
PORT HURON CLOUDY 36 25 64 SW12G17 29.85R WCI 27
TRI CITIES CLOUDY 31 19 61 W24G37 29.87R WCI 17
MIDLAND CLOUDY 31 19 60 W16G31 29.86R WCI 20
TROY CLOUDY 33 23 66 W14G24 29.92R WCI 24
SAGINAW HB CLOUDY 32 21 64 W20G30 29.88R WCI 20
$$
MIZ043>046-050>051-056>058-064>065-071>073-077>080-280800-
SOUTHWEST LOWER MICHIGAN

CITY SKY/WX TMP DP RH WIND PRES REMARKS
BATTLE CREEK CLOUDY 29 21 72 W16 29.97R WCI 17
BENTON HARBOR MOCLDY 27 19 72 W17 30.03R WCI 14
BIG RAPIDS CLOUDY 27 19 72 W15G21 29.88R WCI 15
COLDWATER MOCLDY 28 21 76 W17 29.99R WCI 16
FREMONT CLOUDY 28 15 59 W13G20 29.94R WCI 17
HOLLAND CLOUDY 29 20 69 W18G28 29.99R WCI 16
GRAND RAPIDS CLOUDY 30 23 75 W18G28 29.95R WCI 18
IONIA CLOUDY 30 24 77 SW21G29 29.92R WCI 17
KALAMAZOO CLOUDY 29 21 72 W13G25 30.00R WCI 19
LUDINGTON CLOUDY 28 11 48 W8G17 29.93R WCI 20
MARSHALL CLOUDY 30 23 76 W16 29.97R WCI 18
MOUNT PLEASANT CLOUDY 29 19 63 W17G26 29.88R WCI 18
MUSKEGON CLOUDY 31 19 61 W14G25 29.97R WCI 21
SOUTH HAVEN CLOUDY 29 20 69 W15G21 30.02R WCI 17
$$
MIZ016>042-280800-
NORTHERN LOWER MICHIGAN

CITY SKY/WX TMP DP RH WIND PRES REMARKS
ALPENA CLOUDY 25 18 74 W8 29.77R WCI 16
BEAVER ISLAND MOCLDY 23 12 62 W12G25 29.83R WCI 12
BELLAIRE CLOUDY 26 13 59 W8G17 29.86R WCI 17
CADILLAC CLOUDY 24 16 73 W14 29.83R WCI 11
CHARLEVOIX CLOUDY 24 13 64 W21G28 29.83R WCI 9
FRANKFORT CLOUDY 26 16 65 W14G20 29.89R WCI 14
GAYLORD FLURRIES 23 13 65 W12G26 29.77R WCI 12
GRAYLING LGT SNOW 23 17 79 NW12 29.80R WCI 12
HARBOR SPRINGS FLURRIES 25 13 61 W13G24 29.81R WCI 13
HOUGHTON LAKE CLOUDY 25 17 72 W16G29 29.81R WCI 12
MANISTEE FLURRIES 26 16 65 W16 29.91R WCI 14
OSCODA CLOUDY 29 19 67 W15G25 29.79R WCI 17
PELLSTON CLOUDY 24 13 62 W17G28 29.80R WCI 11
ROGERS CITY CLOUDY 25 17 73 W9G18 29.78R WCI 15
TRAVERSE CITY CLOUDY 27 14 58 NW10 29.86R WCI 17
$$
MIZ007>008-015-280800-
EASTERN UPPER MICHIGAN

CITY SKY/WX TMP DP RH WIND PRES REMARKS
KINROSS FLURRIES 20 14 77 W15 29.74R WCI 6
MACKINAC ISLAN CLEAR 23 14 69 W22G33 29.77R WCI 7
NEWBERRY LGT SNOW 18 14 84 W17G26 29.76R WCI 3
S. S. MARIE MOCLDY 24 17 74 W17G31 29.64F WCI 11
$$
MIZ004>006-011>014-085-280800-
CENTRAL UPPER MICHIGAN

CITY SKY/WX TMP DP RH WIND PRES REMARKS
MANISTIQUE CLOUDY 17 8 66 NW8 29.82R WCI 6
ESCANABA PTCLDY 18 8 65 MISG 29.88R
MENOMINEE CLOUDY 18 9 68 NW9 29.92R WCI 7
SAWYER-GWINN CLOUDY 16 9 76 W12 29.81R WCI 2
MUNISING N/A 21 9 59 W12G23 29.83R WCI 9
$$
MIZ001>003-009>011-084-280800-
WESTERN UPPER MICHIGAN

CITY SKY/WX TMP DP RH WIND PRES REMARKS
IRON MOUNTAIN MOCLDY 15 6 67 W13 29.83R WCI 1
HOUGHTON LGT SNOW 13 7 77 NW28G38 29.82R VSB 3/4 WCI -8
COPPER HARBOR N/A 18 11 74 N29G38 29.84R WCI -1
IRONWOOD LGT SNOW 10 5 80 NW14 29.91R WCI -6
$$

ABBREVIATIONS USED IN REMARKS
TC - TEMPERATURE IN CELSIUS
WCI - WIND CHILL INDEX
HX - HEAT INDEX
VSB - VISIBILITY




000
ASUS63 KAPX 280100
RTPAPX


Eastern Upper/Northern Lower Michigan Temperature and Precip Summary
National Weather Service Gaylord MI
800 PM EST Fri Jan 27 2023

18 hour High/Low Temperature ending 7 pm EST
24 hour Precipitation/Snowfall ending 7 pm EST
Snow Depth Observed at 7 pm EST

.BR APX 0127 ES DH19/TAIRZS/TAIRZI/PPDRZZ/SFDRZZ/SDIRZZ
:..................................................................
: MAX MIN 24 HR SNOW SNOW
:ID LOCATION TEMP TEMP PRECIP FALL DEPTH
:..................................................................
ANJ : Sault Ste Marie : 28 / 6 / 0.10 / 1.5 / 22
APN : Alpena : 28 / 7 / 0.01 / 0.2 / 5
HTL : Houghton Lake : 26 / 19 / 0.01 / 0.3 / 3
PLN : Pellston : 30 / 2 / T / M / M
TVC : Traverse City : 31 / 25 / 0.01 / M / M
GLR : Gaylord : 27 / 10 / T / M / M
.END

Cooperative Observations
Temperature/Precipitation/Snowfall values are for 24 hour period
ending 7 pm EST. Snow Depth is observed at 7 pm EST.
...................................................................
OBS MAX MIN SNOW SNOW
ID LOCATION TIME TEMP TEMP PCPN FALL DEPTH
...................................................................
MAPM4: Maple City 1E :DH1800/ 29 / 21 / 0.12 / 1.7 / 7.0
ONAM4: Onaway 4N :DH1800/ 27 / 8 / 0.16 / 2.1 / 9.0
PICM4: Pickford 3NE :DH1700/ 28 / -7 / 0.06 / 1.0 /18.0

These data are preliminary and have not undergone final quality
control by the National Centers for Environmental Information.
Therefore...these data are subject to revision. Final
and certified climate data can be accessed at www.ncdc.noaa.gov.

&&

The following are supplemental temperature and precipitation data.
This includes data which are received from non-National Weather
Service maintained observing systems...as well as reports from
public weather spotters. Data is only partially quality controlled
and is not suitable for official climatological records.

.BR APX 0127 ES DH19/TAIRZS/TAIRZI
:
:Automated Temperature Data--18 hr High/Low ending 7 pm EST
:..................................................................
: MAX MIN
:ID LOCATION TEMP TEMP
:..................................................................
:
ERY : Newberry : 28 / -1
CIU : Kinross : 27 / 2
MCD : Mackinac Island : 29 / 16
DRM : Drummond Island : 31 / 6
SJX : Beaver Island : 31 / 11
SLH : Cheboygan : 28 / 1
PZQ : Rogers City : 28 / 9
CVX : Charlevoix : 31 / 21
MGN : Harbor Springs : 30 / 11
ACB : Bellaire : 31 / 22
FKS : Frankfort : 33 / 23
MBL : Manistee : 34 / 22
CAD : Cadillac : 29 / 20
Y31 : West Branch : 27 / 16
OSC : Oscoda : 29 / 17
LDM : Ludington : 34 / 25
RQB : Big Rapids : 31 / 22
MOP : Mount Pleasant : 30 / 22
IKW : Midland : 30 / 24
.END

U.S. Forest Service Remote Automated Weather Stations (RAWS)
Data is only partially quality controlled
18 hour High/Low Temperature ending 7 pm EST
Minimum Relative Humidity over past 18 hours
12/24 hour Precipitation ending 7 pm EST
...................................................................
MAX MIN MIN 12 HR 24 HR
ID LOCATION TEMP TEMP RH PRECIP PRECIP
...................................................................
AGRM4: Alger RAWS : 31 / 14 / 46 / 0.00 / 0.00
ATAM4: Atlanta RAWS : 28 / 4 / 57 / 0.00 / 0.00
BCYM4: Barton City RAWS : 28 / 15 / 54 / 0.00 / 0.00
GYGM4: Grayling RAWS : 28 / 17 / 53 / 0.00 / 0.00
INDM4: Indian River RAWS : 33 / 4 / 50 / 0.00 / 0.00
MMOM4: Mio RAWS : 28 / 14 / 52 / 0.00 / 0.00
NMIM4: N Manitou Island : 30 / 21 / 61 / 0.00 / 0.00
RACM4: Raco RAWS : 28 / -5 / 78 / 0.00 / 0.00
REXM4: Rexton RAWS : 29 / -8 / 75 / 0.00 / 0.00
RSCM4: Roscommon RAWS : 27 / 12 / M / 0.00 / 0.00
RYDM4: Rudyard RAWS : M / M / M / M / M
SBDM4: The Bear RAWS : 31 / 22 / 69 / 0.01 / 0.01
SCKM4: Silver Creek RAWS : 29 / 16 / 62 / 0.00 / 0.00
WLLM4: Wellston RAWS : 31 / 21 / 70 / 0.00 / 0.00

The following are preicpitation reports received by the National
Weather Service in Gaylord...valid for the time period ending
around 7 pm EST. All reports have been recorded in inches.

Spotter reports from Eastern Upper and Northern Lower Michigan:

WATER TIME SNOW
LOCATION RAIN SNOW EQUIV PERIOD DEPTH



NO REPORTS


$$